﻿_id,日時,平均風速(m/s),平均風向,最大瞬間風速(m/s),最大風速時風向,気温(℃),湿度(%),10分間移動積算雨量(mm),1時間移動積算雨量(mm),日雨量(mm),累計雨量(mm),日射(日積算)(MJ/m2),日照(日積算)(min),現地気圧(hPa),海面気圧(hPa)
1,2024-01-08T00:00:00,4.2,南,7.9,南南西,0.1,90.1,0,0,0,0,8.33,299,1006.1,1020.8
2,2024-01-08T00:01:00,4.4,南,7.9,南南西,0.2,90.9,0,0,0,0,0,0,1006.2,1020.9
3,2024-01-08T00:02:00,4.3,南,7.9,南南西,0.1,91.1,0,0,0,0,0,0,1006.2,1020.9
4,2024-01-08T00:03:00,4.3,南,7.9,南南西,0.1,91,0,0,0,0,0,0,1006.2,1020.9
5,2024-01-08T00:04:00,4.2,南,7.9,南南西,0,91.1,0,0,0,0,0,0,1006.2,1020.9
6,2024-01-08T00:05:00,3.9,南,7.9,南南西,0,91.8,0,0,0,0,0,0,1006,1020.7
7,2024-01-08T00:06:00,3.9,南,7.9,南南西,0,91.8,0,0,0,0,0,0,1006.1,1020.8
8,2024-01-08T00:07:00,3.7,南,7.1,南,0,92.1,0,0,0,0,0,0,1006.1,1020.8
9,2024-01-08T00:08:00,3.8,南,7.1,南,0,92.3,0,0,0,0,0,0,1006.1,1020.8
10,2024-01-08T00:09:00,3.7,南,7.1,南,0,92.4,0,0,0,0,0,0,1006.1,1020.8
11,2024-01-08T00:10:00,3.6,南,6.7,南,0,92.7,0,0,0,0,0,0,1006.1,1020.8
12,2024-01-08T00:11:00,3.6,南,6.7,南,0.1,92.7,0,0,0,0,0,0,1006.2,1020.9
13,2024-01-08T00:12:00,3.5,南,6.7,南,0.1,92.4,0,0,0,0,0,0,1006,1020.7
14,2024-01-08T00:13:00,3.4,南,6.7,南,0,91.8,0,0,0,0,0,0,1006.1,1020.8
15,2024-01-08T00:14:00,3.4,南,6.7,南,0,92.1,0,0,0,0,0,0,1006.1,1020.8
16,2024-01-08T00:15:00,3.7,南,6.9,南,0,92,0,0,0,0,0,0,1006,1020.7
17,2024-01-08T00:16:00,3.7,南,6.9,南,0.1,91.7,0,0,0,0,0,0,1006.1,1020.8
18,2024-01-08T00:17:00,3.8,南,6.9,南,0.1,91.7,0,0,0,0,0,0,1006,1020.7
19,2024-01-08T00:18:00,3.6,南南西,6.9,南,0.1,91.5,0,0,0,0,0,0,1006.2,1020.9
20,2024-01-08T00:19:00,3.5,南南西,6.9,南,0.1,91.4,0,0,0,0,0,0,1006.2,1020.9
21,2024-01-08T00:20:00,3.3,南南西,6.9,南,0.1,91,0,0,0,0,0,0,1006.3,1021
22,2024-01-08T00:21:00,3.1,南南西,6.9,南,0.2,91.3,0,0,0,0,0,0,1006.2,1020.9
23,2024-01-08T00:22:00,3,南南西,6.9,南,0.2,91.2,0,0,0,0,0,0,1006.2,1020.9
24,2024-01-08T00:23:00,3.2,南南西,7.8,南,0.2,90.8,0,0,0,0,0,0,1006.1,1020.8
25,2024-01-08T00:24:00,3.2,南南西,7.8,南,0.2,89.5,0,0,0,0,0,0,1006.2,1020.9
26,2024-01-08T00:25:00,3.1,南南西,7.8,南,0.2,89.5,0,0,0,0,0,0,1006.2,1020.9
27,2024-01-08T00:26:00,3.1,南南西,7.8,南,0.3,89.5,0,0,0,0,0,0,1006.2,1020.9
28,2024-01-08T00:27:00,2.9,南南西,7.8,南,0.3,88.8,0,0,0,0,0,0,1006.3,1021
29,2024-01-08T00:28:00,2.9,南,7.8,南,0.2,88.5,0,0,0,0,0,0,1006.2,1020.9
30,2024-01-08T00:29:00,2.9,南,7.8,南,0.2,88.6,0,0,0,0,0,0,1006.2,1020.9
31,2024-01-08T00:30:00,2.9,南,7.8,南,0.2,88.6,0,0,0,0,0,0,1006.3,1021
32,2024-01-08T00:31:00,3,南,7.8,南,0.3,88.8,0,0,0,0,0,0,1006.3,1021
33,2024-01-08T00:32:00,3.1,南,7.8,南,0.3,88.4,0,0,0,0,0,0,1006.4,1021.1
34,2024-01-08T00:33:00,2.9,南,5.6,南,0.3,88.2,0,0,0,0,0,0,1006.4,1021.1
35,2024-01-08T00:34:00,2.9,南,5.3,南,0.3,87.6,0,0,0,0,0,0,1006.4,1021.1
36,2024-01-08T00:35:00,2.9,南,5.3,南,0.3,87.4,0,0,0,0,0,0,1006.4,1021.1
37,2024-01-08T00:36:00,2.9,南,5.3,南,0.3,87.9,0,0,0,0,0,0,1006.4,1021.1
38,2024-01-08T00:37:00,3,南,5.3,南,0.3,87.5,0,0,0,0,0,0,1006.4,1021.1
39,2024-01-08T00:38:00,2.9,南,5.1,南,0.3,87.1,0,0,0,0,0,0,1006.4,1021.1
40,2024-01-08T00:39:00,3,南,5,南,0.3,87.4,0,0,0,0,0,0,1006.4,1021.1
41,2024-01-08T00:40:00,3.2,南,5,南,0.3,87.5,0,0,0,0,0,0,1006.4,1021.1
42,2024-01-08T00:41:00,3.1,南,5,南,0.3,88.2,0,0,0,0,0,0,1006.5,1021.2
43,2024-01-08T00:42:00,3.1,南,5,南,0.3,88.3,0,0,0,0,0,0,1006.4,1021.1
44,2024-01-08T00:43:00,3.1,南,5,南,0.4,88.3,0,0,0,0,0,0,1006.5,1021.2
45,2024-01-08T00:44:00,3.1,南,5,南,0.4,88.1,0,0,0,0,0,0,1006.5,1021.2
46,2024-01-08T00:45:00,3,南,5,南,0.4,87.5,0,0,0,0,0,0,1006.4,1021.1
47,2024-01-08T00:46:00,3,南,5,南,0.4,87.4,0,0,0,0,0,0,1006.4,1021.1
48,2024-01-08T00:47:00,2.8,南,5,南,0.4,87.4,0,0,0,0,0,0,1006.5,1021.2
49,2024-01-08T00:48:00,2.8,南,5,南,0.4,87.3,0,0,0,0,0,0,1006.6,1021.3
50,2024-01-08T00:49:00,2.7,南,4.7,南南西,0.4,87.1,0,0,0,0,0,0,1006.6,1021.3
51,2024-01-08T00:50:00,2.6,南,4.7,南南西,0.4,86.9,0,0,0,0,0,0,1006.6,1021.3
52,2024-01-08T00:51:00,2.5,南南西,4.7,南南西,0.5,87,0,0,0,0,0,0,1006.6,1021.3
53,2024-01-08T00:52:00,2.4,南南西,4.4,南南西,0.5,86.8,0,0,0,0,0,0,1006.6,1021.3
54,2024-01-08T00:53:00,2.3,南南西,4.4,南南西,0.5,86.3,0,0,0,0,0,0,1006.7,1021.4
55,2024-01-08T00:54:00,2.2,南南西,4.4,南南西,0.4,86.2,0,0,0,0,0,0,1006.7,1021.4
56,2024-01-08T00:55:00,2.1,南南西,4.4,南南西,0.4,86.2,0,0,0,0,0,0,1006.7,1021.4
57,2024-01-08T00:56:00,2,南南西,4.3,南,0.5,86,0,0,0,0,0,0,1006.6,1021.3
58,2024-01-08T00:57:00,2,南南西,4.3,南,0.4,85.3,0,0,0,0,0,0,1006.6,1021.3
59,2024-01-08T00:58:00,1.8,南南西,4.3,南,0.7,86.2,0,0,0,0,0,0,1006.7,1021.3
60,2024-01-08T00:59:00,1.7,南南西,3.3,南,0.8,86.9,0,0,0,0,0,0,1006.8,1021.4
61,2024-01-08T01:00:00,1.6,南南西,3.3,南,0.6,85.7,0,0,0,0,0,0,1006.8,1021.4
62,2024-01-08T01:01:00,1.6,南南西,3.3,南,0.4,86.6,0,0,0,0,0,0,1006.7,1021.4
63,2024-01-08T01:02:00,1.6,南南西,3.1,南西,0.4,86.6,0,0,0,0,0,0,1006.6,1021.3
64,2024-01-08T01:03:00,1.8,南西,4.5,西南西,0.6,84.5,0,0,0,0,0,0,1006.7,1021.3
65,2024-01-08T01:04:00,2,南西,4.5,西南西,0.7,83.4,0,0,0,0,0,0,1006.8,1021.4
66,2024-01-08T01:05:00,2.1,南西,4.5,西南西,0.7,84,0,0,0,0,0,0,1006.8,1021.4
67,2024-01-08T01:06:00,2.1,南西,4.5,西南西,0.7,84.4,0,0,0,0,0,0,1006.9,1021.5
68,2024-01-08T01:07:00,2.3,西南西,5.7,西,0.6,85.7,0,0,0,0,0,0,1006.8,1021.4
69,2024-01-08T01:08:00,2.5,西南西,5.7,西,0.6,87.8,0,0,0,0,0,0,1006.8,1021.4
70,2024-01-08T01:09:00,2.4,西南西,5.7,西,0.6,88.9,0,0,0,0,0,0,1006.9,1021.6
71,2024-01-08T01:10:00,2.4,西,5.7,西,0.7,89.2,0,0,0,0,0,0,1006.9,1021.5
72,2024-01-08T01:11:00,2.3,西,5.7,西,1,90.3,0,0,0,0,0,0,1006.9,1021.5
73,2024-01-08T01:12:00,2.2,西,5.7,西,0.7,89.3,0,0,0,0,0,0,1007,1021.6
74,2024-01-08T01:13:00,1.8,西,5.7,西,0.6,89.2,0,0,0,0,0,0,1006.9,1021.6
75,2024-01-08T01:14:00,1.7,西,5.7,西,0.6,89.7,0,0,0,0,0,0,1006.8,1021.4
76,2024-01-08T01:15:00,1.5,西,5.7,西,0.4,89.8,0,0,0,0,0,0,1006.9,1021.6
77,2024-01-08T01:16:00,1.4,西,5.7,西,0.5,89.3,0,0,0,0,0,0,1006.8,1021.5
78,2024-01-08T01:17:00,1,西,3.8,北西,0.5,89,0,0,0,0,0,0,1006.9,1021.6
79,2024-01-08T01:18:00,0.9,西,2,西,0.6,89.3,0,0,0,0,0,0,1006.9,1021.6
80,2024-01-08T01:19:00,0.8,西南西,2,西,0.6,89.7,0,0,0,0,0,0,1006.8,1021.4
81,2024-01-08T01:20:00,0.8,西南西,2,西,0.6,90.1,0,0,0,0,0,0,1006.8,1021.4
82,2024-01-08T01:21:00,0.8,西南西,2,西,0.5,90,0,0,0,0,0,0,1006.8,1021.5
83,2024-01-08T01:22:00,0.9,西南西,2,西,0.4,88.4,0,0,0,0,0,0,1006.9,1021.6
84,2024-01-08T01:23:00,0.9,西南西,2,西,0.5,89.4,0,0,0,0,0,0,1007,1021.7
85,2024-01-08T01:24:00,0.9,西南西,2,西,0.4,89.1,0,0,0,0,0,0,1006.9,1021.6
86,2024-01-08T01:25:00,0.9,西南西,1.9,西,0.6,89.1,0,0,0,0,0,0,1006.9,1021.6
87,2024-01-08T01:26:00,0.9,西南西,1.9,西,0.6,88.8,0,0,0,0,0,0,1006.9,1021.6
88,2024-01-08T01:27:00,1,西,1.9,西,0.5,88.5,0,0,0,0,0,0,1007.1,1021.8
89,2024-01-08T01:28:00,1,西,1.9,西,0.5,89.4,0,0,0,0,0,0,1007,1021.7
90,2024-01-08T01:29:00,1,西南西,1.9,西,0.6,89.9,0,0,0,0,0,0,1007,1021.7
91,2024-01-08T01:30:00,1.1,西南西,1.9,西,0.4,89.5,0,0,0,0,0,0,1007,1021.7
92,2024-01-08T01:31:00,1,西,1.9,西,0.6,89.8,0,0,0,0,0,0,1007.1,1021.8
93,2024-01-08T01:32:00,1,西南西,1.9,西,0.5,90.1,0,0,0,0,0,0,1007,1021.7
94,2024-01-08T01:33:00,1.1,西南西,2.5,西,0.5,88.5,0,0,0,0,0,0,1007.1,1021.8
95,2024-01-08T01:34:00,1.1,西南西,2.5,西,0.6,87.1,0,0,0,0,0,0,1007.2,1021.9
96,2024-01-08T01:35:00,1,西南西,2.5,西,0.7,86.8,0,0,0,0,0,0,1007.1,1021.7
97,2024-01-08T01:36:00,0.9,西南西,2.5,西,0.8,86.6,0,0,0,0,0,0,1007.2,1021.8
98,2024-01-08T01:37:00,0.8,西南西,2.5,西,0.8,86.5,0,0,0,0,0,0,1007.2,1021.8
99,2024-01-08T01:38:00,0.9,西南西,2.5,西,0.8,87.1,0,0,0,0,0,0,1007.2,1021.8
100,2024-01-08T01:39:00,0.8,西南西,2.5,西,0.6,87.3,0,0,0,0,0,0,1007.3,1022
101,2024-01-08T01:40:00,0.8,西南西,2.5,西,0.9,88.7,0,0,0,0,0,0,1007.4,1022
102,2024-01-08T01:41:00,0.8,西南西,2.5,西,0.8,88.6,0,0,0,0,0,0,1007.3,1021.9
103,2024-01-08T01:42:00,0.8,西南西,2.5,西,0.7,85.9,0,0,0,0,0,0,1007.2,1021.8
104,2024-01-08T01:43:00,0.8,西南西,2,西南西,0.8,84.7,0,0,0,0,0,0,1007.3,1021.9
105,2024-01-08T01:44:00,0.8,西南西,2,西南西,0.8,85.8,0,0,0,0,0,0,1007.3,1021.9
106,2024-01-08T01:45:00,0.8,西,2,西南西,0.8,86,0,0,0,0,0,0,1007.3,1021.9
107,2024-01-08T01:46:00,0.8,西,2,西南西,0.9,86,0,0,0,0,0,0,1007.5,1022.1
108,2024-01-08T01:47:00,0.9,西北西,2,西南西,1,85.7,0,0,0,0,0,0,1007.5,1022.1
109,2024-01-08T01:48:00,0.9,北西,2.1,北東,1,85.8,0,0,0,0,0,0,1007.4,1022
110,2024-01-08T01:49:00,1,西北西,2.3,南西,1,86.5,0,0,0,0,0,0,1007.4,1022
111,2024-01-08T01:50:00,1.2,北西,4.3,西南西,0.8,85.6,0,0,0,0,0,0,1007.4,1022
112,2024-01-08T01:51:00,1.4,北西,5.4,北西,0.7,84,0,0,0,0,0,0,1007.4,1022.1
113,2024-01-08T01:52:00,1.3,北北西,5.4,北西,0.7,85.5,0,0,0,0,0,0,1007.4,1022.1
114,2024-01-08T01:53:00,1.4,北北西,5.4,北西,0.7,86.4,0,0,0,0,0,0,1007.4,1022.1
115,2024-01-08T01:54:00,1.6,北西,5.4,北西,0.7,85.5,0,0,0,0,0,0,1007.4,1022.1
116,2024-01-08T01:55:00,1.7,北西,5.4,北西,0.8,82.3,0,0,0,0,0,0,1007.4,1022
117,2024-01-08T01:56:00,1.8,西北西,5.4,北西,0.8,82.4,0,0,0,0,0,0,1007.3,1021.9
118,2024-01-08T01:57:00,1.9,西北西,5.4,北西,0.8,82,0,0,0,0,0,0,1007.4,1022
119,2024-01-08T01:58:00,2,西北西,5.4,北西,1,81.2,0,0,0,0,0,0,1007.4,1022
120,2024-01-08T01:59:00,2.1,西北西,5.4,北西,1.2,79.7,0,0,0,0,0,0,1007.4,1022
121,2024-01-08T02:00:00,2,西北西,5.4,北西,1.1,80.7,0,0,0,0,0,0,1007.3,1021.9
122,2024-01-08T02:01:00,1.8,西北西,3.7,西北西,1.1,81.1,0,0,0,0,0,0,1007.4,1022
123,2024-01-08T02:02:00,1.8,西北西,3.7,西北西,1.2,81.7,0,0,0,0,0,0,1007.4,1022
124,2024-01-08T02:03:00,1.6,北西,3.7,西北西,1.1,81.2,0,0,0,0,0,0,1007.4,1022
125,2024-01-08T02:04:00,1.5,北西,3.7,西北西,1.1,81.8,0,0,0,0,0,0,1007.5,1022.1
126,2024-01-08T02:05:00,1.2,北西,3.7,西北西,1,82.1,0,0,0,0,0,0,1007.4,1022
127,2024-01-08T02:06:00,1.1,北北西,3.7,西北西,1,82,0,0,0,0,0,0,1007.5,1022.1
128,2024-01-08T02:07:00,1,北北西,3.1,西北西,1,83.1,0,0,0,0,0,0,1007.6,1022.2
129,2024-01-08T02:08:00,0.9,北北西,2.4,北西,0.8,83.5,0,0,0,0,0,0,1007.6,1022.2
130,2024-01-08T02:09:00,0.7,北,2.1,西北西,0.6,84.1,0,0,0,0,0,0,1007.6,1022.3
131,2024-01-08T02:10:00,0.6,北北東,1.7,北西,0.5,84.9,0,0,0,0,0,0,1007.6,1022.3
132,2024-01-08T02:11:00,0.5,北東,1.7,北西,0.6,86.2,0,0,0,0,0,0,1007.7,1022.4
133,2024-01-08T02:12:00,0.4,東北東,1.6,北,0.7,87.2,0,0,0,0,0,0,1007.6,1022.3
134,2024-01-08T02:13:00,0.5,東北東,1.7,東,0.6,86.8,0,0,0,0,0,0,1007.6,1022.3
135,2024-01-08T02:14:00,0.6,東北東,1.7,東,0.6,87,0,0,0,0,0,0,1007.6,1022.3
136,2024-01-08T02:15:00,0.7,東北東,1.8,東,1,88.3,0,0,0,0,0,0,1007.6,1022.2
137,2024-01-08T02:16:00,0.7,東北東,1.8,東,0.7,87.2,0,0,0,0,0,0,1007.6,1022.3
138,2024-01-08T02:17:00,0.7,東,1.8,東,0.6,87,0,0,0,0,0,0,1007.6,1022.3
139,2024-01-08T02:18:00,0.6,東,1.8,東,0.5,87.6,0,0,0,0,0,0,1007.7,1022.4
140,2024-01-08T02:19:00,0.7,東,1.8,東,0.5,87.8,0,0,0,0,0,0,1007.7,1022.4
141,2024-01-08T02:20:00,0.7,東南東,1.8,東,0.5,87.7,0,0,0,0,0,0,1007.7,1022.4
142,2024-01-08T02:21:00,0.7,東南東,1.8,東,0.6,88,0,0,0,0,0,0,1007.7,1022.4
143,2024-01-08T02:22:00,0.7,東南東,1.8,東,0.6,87.8,0,0,0,0,0,0,1007.7,1022.4
144,2024-01-08T02:23:00,0.6,南東,1.8,東,0.9,88.3,0,0,0,0,0,0,1007.7,1022.3
145,2024-01-08T02:24:00,0.5,南東,1.8,東,0.9,89.5,0,0,0,0,0,0,1007.8,1022.4
146,2024-01-08T02:25:00,0.3,南東,1.7,東,0.8,88.5,0,0,0,0,0,0,1007.7,1022.4
147,2024-01-08T02:26:00,0.2,静穏,1.1,南,0.8,89.1,0,0,0,0,0,0,1007.7,1022.4
148,2024-01-08T02:27:00,0.2,静穏,1.1,南,0.5,88.3,0,0,0,0,0,0,1007.6,1022.3
149,2024-01-08T02:28:00,0.2,静穏,1.1,南,0.5,87.5,0,0,0,0,0,0,1007.6,1022.3
150,2024-01-08T02:29:00,0.2,静穏,1.1,南,0.7,88.8,0,0,0,0,0,0,1007.7,1022.4
151,2024-01-08T02:30:00,0.1,静穏,0.7,南南東,0.6,89,0,0,0,0,0,0,1007.7,1022.4
152,2024-01-08T02:31:00,0.1,静穏,0.5,北西,0.4,88.4,0,0,0,0,0,0,1007.7,1022.4
153,2024-01-08T02:32:00,0.1,静穏,0.5,北西,0.5,89,0,0,0,0,0,0,1007.6,1022.3
154,2024-01-08T02:33:00,0.2,静穏,1.1,北北東,0.5,89.7,0,0,0,0,0,0,1007.6,1022.3
155,2024-01-08T02:34:00,0.3,北,1.1,北北東,0.5,90,0,0,0,0,0,0,1007.6,1022.3
156,2024-01-08T02:35:00,0.3,北,1.1,北北東,0.4,90,0,0,0,0,0,0,1007.6,1022.3
157,2024-01-08T02:36:00,0.3,北,1.1,北北東,0.3,89.9,0,0,0,0,0,0,1007.6,1022.3
158,2024-01-08T02:37:00,0.3,北,1.1,北北東,0.4,90,0,0,0,0,0,0,1007.6,1022.3
159,2024-01-08T02:38:00,0.3,北,1.1,北北東,0.4,90.5,0,0,0,0,0,0,1007.5,1022.2
160,2024-01-08T02:39:00,0.3,北,1.1,北北東,0.7,91.7,0,0,0,0,0,0,1007.6,1022.3
161,2024-01-08T02:40:00,0.3,北,1.1,北北東,0.3,91,0,0,0,0,0,0,1007.6,1022.3
162,2024-01-08T02:41:00,0.3,北,1.1,北北東,0.3,91,0,0,0,0,0,0,1007.7,1022.4
163,2024-01-08T02:42:00,0.3,北北東,1.1,北北東,0.4,91.8,0,0,0,0,0,0,1007.8,1022.5
164,2024-01-08T02:43:00,0.3,北北西,1.1,北北東,0.3,91.4,0,0,0,0,0,0,1007.6,1022.3
165,2024-01-08T02:44:00,0.3,南,0.8,南東,0.3,90.7,0,0,0,0,0,0,1007.7,1022.4
166,2024-01-08T02:45:00,0.2,静穏,0.8,南東,0.2,91.2,0,0,0,0,0,0,1007.7,1022.4
167,2024-01-08T02:46:00,0.2,静穏,0.8,南東,0.2,91.5,0,0,0,0,0,0,1007.8,1022.5
168,2024-01-08T02:47:00,0.2,静穏,0.8,南東,0.2,91.9,0,0,0,0,0,0,1007.7,1022.4
169,2024-01-08T02:48:00,0.3,南西,0.8,南東,0.1,91.9,0,0,0,0,0,0,1007.7,1022.4
170,2024-01-08T02:49:00,0.3,南西,1.1,南南西,0.2,92.1,0,0,0,0,0,0,1007.7,1022.4
171,2024-01-08T02:50:00,0.4,南南西,1.1,南南西,0.2,91.4,0,0,0,0,0,0,1007.7,1022.4
172,2024-01-08T02:51:00,0.4,南南西,1.1,南南西,0.2,90.8,0,0,0,0,0,0,1007.8,1022.5
173,2024-01-08T02:52:00,0.4,南南西,1.1,南南西,0.3,90.5,0,0,0,0,0,0,1007.7,1022.4
174,2024-01-08T02:53:00,0.4,南西,1.1,南南西,0.5,90.9,0,0,0,0,0,0,1007.8,1022.5
175,2024-01-08T02:54:00,0.4,南西,1.1,南南西,0.5,90.8,0,0,0,0,0,0,1007.7,1022.4
176,2024-01-08T02:55:00,0.4,南南西,1.1,南南西,0.5,90.3,0,0,0,0,0,0,1007.7,1022.4
177,2024-01-08T02:56:00,0.4,南,1.1,南南西,0.4,89.7,0,0,0,0,0,0,1007.7,1022.4
178,2024-01-08T02:57:00,0.4,南,1.1,南南西,0.4,89.8,0,0,0,0,0,0,1007.7,1022.4
179,2024-01-08T02:58:00,0.4,南南東,1.1,南南西,0.3,90,0,0,0,0,0,0,1007.8,1022.5
180,2024-01-08T02:59:00,0.3,南南東,1.1,南南西,0.2,89.8,0,0,0,0,0,0,1007.7,1022.4
181,2024-01-08T03:00:00,0.3,南南東,1.4,南,0.3,90.2,0,0,0,0,0,0,1007.6,1022.3
182,2024-01-08T03:01:00,0.3,南南東,1.4,南,0,89.9,0,0,0,0,0,0,1007.8,1022.5
183,2024-01-08T03:02:00,0.3,南南東,1.4,南,0,90.2,0,0,0,0,0,0,1007.8,1022.5
184,2024-01-08T03:03:00,0.2,静穏,1.4,南,0,90.6,0,0,0,0,0,0,1007.8,1022.5
185,2024-01-08T03:04:00,0.3,南南西,1.4,南,0.3,91.3,0,0,0,0,0,0,1007.9,1022.6
186,2024-01-08T03:05:00,0.3,南南西,1.4,南,0.3,91.2,0,0,0,0,0,0,1007.9,1022.6
187,2024-01-08T03:06:00,0.3,南南西,1.4,南,0.2,90.2,0,0,0,0,0,0,1007.8,1022.5
188,2024-01-08T03:07:00,0.4,南南西,1.4,南,0,89.2,0,0,0,0,0,0,1007.8,1022.5
189,2024-01-08T03:08:00,0.4,南南西,1.4,南,0,88.7,0,0,0,0,0,0,1007.8,1022.5
190,2024-01-08T03:09:00,0.4,南南西,1.4,南,0,88.9,0,0,0,0,0,0,1007.9,1022.6
191,2024-01-08T03:10:00,0.4,南西,1.4,南南東,0,89.5,0,0,0,0,0,0,1007.9,1022.6
192,2024-01-08T03:11:00,0.5,南西,1.4,南南東,0,90.6,0,0,0,0,0,0,1008,1022.7
193,2024-01-08T03:12:00,0.6,南西,1.4,南南東,0,90.6,0,0,0,0,0,0,1008,1022.7
194,2024-01-08T03:13:00,0.7,南南西,2,南南西,0.1,90.4,0,0,0,0,0,0,1008,1022.7
195,2024-01-08T03:14:00,0.8,南南西,2,南南西,0.1,90.5,0,0,0,0,0,0,1007.9,1022.6
196,2024-01-08T03:15:00,0.9,南南西,2.4,南南西,0,90.1,0,0,0,0,0,0,1008,1022.7
197,2024-01-08T03:16:00,0.9,南南西,2.4,南南西,-0.1,89.9,0,0,0,0,0,0,1008,1022.7
198,2024-01-08T03:17:00,0.9,南西,2.4,南南西,-0.2,90,0,0,0,0,0,0,1008.1,1022.8
199,2024-01-08T03:18:00,1,南西,2.4,南南西,-0.3,89.9,0,0,0,0,0,0,1008.1,1022.8
200,2024-01-08T03:19:00,1.1,南西,2.4,南南西,-0.3,90,0,0,0,0,0,0,1008,1022.7
201,2024-01-08T03:20:00,1.1,南西,2.4,南南西,-0.2,90.5,0,0,0,0,0,0,1008,1022.7
202,2024-01-08T03:21:00,1.1,南西,2.4,南南西,-0.1,90.9,0,0,0,0,0,0,1008.1,1022.8
203,2024-01-08T03:22:00,1.1,南西,2.4,南南西,-0.3,90.5,0,0,0,0,0,0,1008.1,1022.8
204,2024-01-08T03:23:00,1.2,南西,2.9,南南西,-0.4,90.3,0,0,0,0,0,0,1008,1022.7
205,2024-01-08T03:24:00,1.1,南西,2.9,南南西,-0.5,90.3,0,0,0,0,0,0,1008,1022.7
206,2024-01-08T03:25:00,1,南南西,2.9,南南西,-0.5,90.7,0,0,0,0,0,0,1007.9,1022.6
207,2024-01-08T03:26:00,1,南西,2.9,南南西,-0.6,90.7,0,0,0,0,0,0,1007.9,1022.6
208,2024-01-08T03:27:00,1,南西,2.9,南南西,-0.3,91.6,0,0,0,0,0,0,1008,1022.7
209,2024-01-08T03:28:00,0.9,南西,2.9,南南西,-0.3,92.2,0,0,0,0,0,0,1008.1,1022.8
210,2024-01-08T03:29:00,1,南西,2.9,南南西,-0.5,91,0,0,0,0,0,0,1008.1,1022.8
211,2024-01-08T03:30:00,1.1,南西,2.9,南南西,-0.4,91.2,0,0,0,0,0,0,1008.1,1022.8
212,2024-01-08T03:31:00,1.2,南西,2.9,南南西,-0.4,91.2,0,0,0,0,0,0,1008.1,1022.8
213,2024-01-08T03:32:00,1.2,南西,2.9,南南西,-0.3,90.6,0,0,0,0,0,0,1008,1022.7
214,2024-01-08T03:33:00,1.1,南西,2.6,南西,-0.4,90.1,0,0,0,0,0,0,1008,1022.7
215,2024-01-08T03:34:00,1,南西,2.6,南西,-0.4,90.1,0,0,0,0,0,0,1008,1022.7
216,2024-01-08T03:35:00,1,南西,2.6,南西,-0.3,90.8,0,0,0,0,0,0,1008,1022.7
217,2024-01-08T03:36:00,1.1,南西,2.6,南西,-0.5,90.4,0,0,0,0,0,0,1007.9,1022.6
218,2024-01-08T03:37:00,1.1,南西,2.6,南西,-0.6,90.3,0,0,0,0,0,0,1007.9,1022.6
219,2024-01-08T03:38:00,1.1,南南西,2.6,南西,-0.6,90.6,0,0,0,0,0,0,1008,1022.7
220,2024-01-08T03:39:00,1,南南西,2.6,南西,-0.7,91,0,0,0,0,0,0,1008,1022.7
221,2024-01-08T03:40:00,0.9,南,2.3,南南東,-0.7,91.5,0,0,0,0,0,0,1008,1022.7
222,2024-01-08T03:41:00,0.8,南,2.3,南南東,-0.6,91.9,0,0,0,0,0,0,1007.9,1022.6
223,2024-01-08T03:42:00,0.7,南南東,1.8,南南西,-0.6,92.1,0,0,0,0,0,0,1007.9,1022.6
224,2024-01-08T03:43:00,0.7,南南東,1.7,南東,-0.6,92.1,0,0,0,0,0,0,1007.9,1022.6
225,2024-01-08T03:44:00,0.8,南南東,1.9,南,-0.6,92,0,0,0,0,0,0,1007.9,1022.6
226,2024-01-08T03:45:00,0.9,南南東,2.7,南南西,-0.4,92,0,0,0,0,0,0,1007.9,1022.6
227,2024-01-08T03:46:00,1.1,南南東,2.9,南南西,-0.4,92.3,0,0,0,0,0,0,1007.9,1022.6
228,2024-01-08T03:47:00,1.2,南南東,2.9,南南西,-0.5,91.4,0,0,0,0,0,0,1007.9,1022.6
229,2024-01-08T03:48:00,1.2,南,2.9,南南西,-0.5,91,0,0,0,0,0,0,1007.8,1022.5
230,2024-01-08T03:49:00,1.3,南,2.9,南南西,-0.4,91.1,0,0,0,0,0,0,1007.9,1022.6
231,2024-01-08T03:50:00,1.3,南,2.9,南南西,-0.2,92.1,0,0,0,0,0,0,1007.9,1022.6
232,2024-01-08T03:51:00,1.4,南,2.9,南南西,-0.4,91,0,0,0,0,0,0,1007.9,1022.6
233,2024-01-08T03:52:00,1.5,南南西,2.9,南南西,-0.4,90.1,0,0,0,0,0,0,1007.9,1022.6
234,2024-01-08T03:53:00,1.6,南南西,2.9,南南西,-0.3,90.2,0,0,0,0,0,0,1007.9,1022.6
235,2024-01-08T03:54:00,1.5,南南西,2.9,南南西,-0.2,90.5,0,0,0,0,0,0,1008,1022.7
236,2024-01-08T03:55:00,1.3,南南西,2.9,南南西,-0.4,90.2,0,0,0,0,0,0,1008,1022.7
237,2024-01-08T03:56:00,1.2,南南西,2.8,南南西,-0.5,89.8,0,0,0,0,0,0,1007.9,1022.6
238,2024-01-08T03:57:00,1,南西,2.1,南,-0.5,89.9,0,0,0,0,0,0,1008,1022.7
239,2024-01-08T03:58:00,1,南南西,2.1,南,-0.4,90.4,0,0,0,0,0,0,1008,1022.7
240,2024-01-08T03:59:00,0.9,南南西,2.1,南,-0.5,90.3,0,0,0,0,0,0,1008,1022.7
241,2024-01-08T04:00:00,0.8,南南東,2.1,南,-0.4,90.4,0,0,0,0,0,0,1008,1022.7
242,2024-01-08T04:01:00,0.7,東北東,2.1,南,-0.5,90.6,0,0,0,0,0,0,1008,1022.7
243,2024-01-08T04:02:00,0.6,北,1.9,南,-0.5,90.5,0,0,0,0,0,0,1008.1,1022.8
244,2024-01-08T04:03:00,0.5,北北西,1.4,北西,-0.4,90.9,0,0,0,0,0,0,1008.1,1022.8
245,2024-01-08T04:04:00,0.5,北西,1.4,北西,-0.3,91.1,0,0,0,0,0,0,1008,1022.7
246,2024-01-08T04:05:00,0.5,北西,1.4,北西,-0.5,90.4,0,0,0,0,0,0,1008,1022.7
247,2024-01-08T04:06:00,0.5,北北西,1.3,東北東,-0.5,90.4,0,0,0,0,0,0,1008,1022.7
248,2024-01-08T04:07:00,0.4,北北西,1.3,東北東,-0.6,90.7,0,0,0,0,0,0,1008.1,1022.8
249,2024-01-08T04:08:00,0.4,北北西,1.3,東北東,-0.6,90.8,0,0,0,0,0,0,1008.1,1022.8
250,2024-01-08T04:09:00,0.3,北西,1.3,東北東,-0.5,91.3,0,0,0,0,0,0,1008.1,1022.8
251,2024-01-08T04:10:00,0.3,西北西,0.9,南西,-0.5,91.7,0,0,0,0,0,0,1008,1022.7
252,2024-01-08T04:11:00,0.2,静穏,0.9,南西,-0.6,91.4,0,0,0,0,0,0,1008,1022.7
253,2024-01-08T04:12:00,0.2,静穏,0.8,北西,-0.5,91.4,0,0,0,0,0,0,1008,1022.7
254,2024-01-08T04:13:00,0.2,静穏,0.8,北西,-0.5,92.1,0,0,0,0,0,0,1008,1022.7
255,2024-01-08T04:14:00,0.1,静穏,0.8,北西,-0.6,91.6,0,0,0,0,0,0,1008,1022.7
256,2024-01-08T04:15:00,0.1,静穏,0.4,北北西,-0.6,91.5,0,0,0,0,0,0,1008,1022.7
257,2024-01-08T04:16:00,0,静穏,0.3,東,-0.5,91.6,0,0,0,0,0,0,1008,1022.7
258,2024-01-08T04:17:00,0,静穏,0.3,東,-0.3,91.7,0,0,0,0,0,0,1008,1022.7
259,2024-01-08T04:18:00,0.1,静穏,0.3,東,-0.4,91.6,0,0,0,0,0,0,1008.1,1022.8
260,2024-01-08T04:19:00,0.1,静穏,0.6,西南西,-0.4,91.2,0,0,0,0,0,0,1008.1,1022.8
261,2024-01-08T04:20:00,0.1,静穏,0.8,西,-0.6,91.6,0,0,0,0,0,0,1008.1,1022.8
262,2024-01-08T04:21:00,0.1,静穏,0.8,西,-0.5,91.7,0,0,0,0,0,0,1008.1,1022.8
263,2024-01-08T04:22:00,0.2,静穏,0.9,西,-0.4,92.7,0,0,0,0,0,0,1008.2,1022.9
264,2024-01-08T04:23:00,0.2,静穏,0.9,西,-0.4,91.9,0,0,0,0,0,0,1008.2,1022.9
265,2024-01-08T04:24:00,0.2,静穏,0.9,西,-0.4,92.3,0,0,0,0,0,0,1008.2,1022.9
266,2024-01-08T04:25:00,0.3,西,0.9,西,-0.4,92.2,0,0,0,0,0,0,1008.3,1023
267,2024-01-08T04:26:00,0.3,西,0.9,西,-0.4,92.2,0,0,0,0,0,0,1008.3,1023
268,2024-01-08T04:27:00,0.3,西北西,0.9,西,-0.4,92.4,0,0,0,0,0,0,1008.3,1023
269,2024-01-08T04:28:00,0.3,北西,0.9,西,-0.3,92.2,0,0,0,0,0,0,1008.3,1023
270,2024-01-08T04:29:00,0.3,北西,0.9,西,-0.3,92,0,0,0,0,0,0,1008.4,1023.1
271,2024-01-08T04:30:00,0.3,北西,0.9,西,-0.3,91.9,0,0,0,0,0,0,1008.5,1023.2
272,2024-01-08T04:31:00,0.3,北西,0.9,西,-0.2,92,0,0,0,0,0,0,1008.5,1023.2
273,2024-01-08T04:32:00,0.3,北西,0.6,西北西,-0.2,92.3,0,0,0,0,0,0,1008.5,1023.2
274,2024-01-08T04:33:00,0.3,北北西,0.6,西北西,-0.3,92,0,0,0,0,0,0,1008.5,1023.2
275,2024-01-08T04:34:00,0.2,静穏,0.6,西北西,-0.2,92.6,0,0,0,0,0,0,1008.5,1023.2
276,2024-01-08T04:35:00,0.2,静穏,0.6,西北西,-0.2,92.7,0,0,0,0,0,0,1008.6,1023.3
277,2024-01-08T04:36:00,0.2,静穏,0.6,西北西,-0.2,92.2,0,0,0,0,0,0,1008.6,1023.3
278,2024-01-08T04:37:00,0.2,静穏,0.6,西北西,-0.3,91.5,0,0,0,0,0,0,1008.6,1023.3
279,2024-01-08T04:38:00,0.2,静穏,1,西,-0.3,91.2,0,0,0,0,0,0,1008.7,1023.4
280,2024-01-08T04:39:00,0.3,西北西,1.2,西,-0.1,91.3,0,0,0,0,0,0,1008.6,1023.3
281,2024-01-08T04:40:00,0.3,西,1.4,西,-0.2,91.7,0,0,0,0,0,0,1008.7,1023.4
282,2024-01-08T04:41:00,0.3,西,1.4,西,-0.3,90.6,0,0,0,0,0,0,1008.7,1023.4
283,2024-01-08T04:42:00,0.3,西南西,1.4,西,-0.1,91.3,0,0,0,0,0,0,1008.7,1023.4
284,2024-01-08T04:43:00,0.3,南南西,1.4,西,-0.3,91.4,0,0,0,0,0,0,1008.7,1023.4
285,2024-01-08T04:44:00,0.3,南,1.4,西,-0.3,91.1,0,0,0,0,0,0,1008.7,1023.4
286,2024-01-08T04:45:00,0.3,南南西,1.4,西,-0.3,91.4,0,0,0,0,0,0,1008.7,1023.4
287,2024-01-08T04:46:00,0.3,南南西,1.4,西,-0.2,92.2,0,0,0,0,0,0,1008.7,1023.4
288,2024-01-08T04:47:00,0.4,南西,1.4,西,-0.1,92.6,0,0,0,0,0,0,1008.8,1023.5
289,2024-01-08T04:48:00,0.4,西南西,1.4,西,-0.2,92.3,0,0,0,0,0,0,1008.7,1023.4
290,2024-01-08T04:49:00,0.4,西南西,1.4,西,-0.3,92.2,0,0,0,0,0,0,1008.8,1023.5
291,2024-01-08T04:50:00,0.3,西,1,西,-0.2,92.8,0,0,0,0,0,0,1008.7,1023.4
292,2024-01-08T04:51:00,0.4,西,0.8,西北西,-0.2,93.4,0,0,0,0,0,0,1008.7,1023.4
293,2024-01-08T04:52:00,0.4,西北西,0.8,西北西,-0.1,93.4,0,0,0,0,0,0,1008.7,1023.4
294,2024-01-08T04:53:00,0.3,西北西,0.8,西北西,-0.2,93.3,0,0,0,0,0,0,1008.7,1023.4
295,2024-01-08T04:54:00,0.4,北西,0.8,西北西,-0.3,92.9,0,0,0,0,0,0,1008.8,1023.5
296,2024-01-08T04:55:00,0.4,北西,0.8,西北西,-0.3,93,0,0,0,0,0,0,1008.8,1023.5
297,2024-01-08T04:56:00,0.4,北西,0.8,西北西,-0.2,93.3,0,0,0,0,0,0,1008.9,1023.6
298,2024-01-08T04:57:00,0.4,北西,0.8,西北西,-0.1,93.6,0,0,0,0,0,0,1008.9,1023.6
299,2024-01-08T04:58:00,0.4,北西,0.8,西北西,-0.2,93.3,0,0,0,0,0,0,1008.9,1023.6
300,2024-01-08T04:59:00,0.4,北西,0.8,西北西,-0.2,93.2,0,0,0,0,0,0,1008.9,1023.6
301,2024-01-08T05:00:00,0.4,北西,0.8,西北西,-0.2,93.7,0,0,0,0,0,0,1008.9,1023.6
302,2024-01-08T05:01:00,0.3,北北西,0.8,西北西,-0.2,94,0,0,0,0,0,0,1008.8,1023.5
303,2024-01-08T05:02:00,0.3,北,0.8,西北西,-0.2,94.2,0,0,0,0,0,0,1008.8,1023.5
304,2024-01-08T05:03:00,0.3,北北東,0.8,西北西,-0.1,94.3,0,0,0,0,0,0,1008.8,1023.5
305,2024-01-08T05:04:00,0.3,北北西,0.8,西北西,-0.2,94.3,0,0,0,0,0,0,1008.9,1023.6
306,2024-01-08T05:05:00,0.3,北西,0.8,西北西,-0.1,94.3,0,0,0,0,0,0,1008.9,1023.6
307,2024-01-08T05:06:00,0.3,西北西,0.8,西北西,-0.1,94.4,0,0,0,0,0,0,1008.9,1023.6
308,2024-01-08T05:07:00,0.3,西北西,0.8,西北西,-0.1,94,0,0,0,0,0,0,1008.9,1023.6
309,2024-01-08T05:08:00,0.2,静穏,0.8,西北西,-0.1,94.5,0,0,0,0,0,0,1008.9,1023.6
310,2024-01-08T05:09:00,0.2,静穏,0.7,北西,-0.3,93.8,0,0,0,0,0,0,1008.9,1023.6
311,2024-01-08T05:10:00,0.2,静穏,0.9,南,-0.3,93.8,0,0,0,0,0,0,1008.8,1023.5
312,2024-01-08T05:11:00,0.2,静穏,0.9,南,-0.4,93.9,0,0,0,0,0,0,1008.8,1023.5
313,2024-01-08T05:12:00,0.2,静穏,0.9,南,-0.5,93.8,0,0,0,0,0,0,1008.9,1023.6
314,2024-01-08T05:13:00,0.2,静穏,0.9,南,-0.2,94.5,0,0,0,0,0,0,1008.9,1023.6
315,2024-01-08T05:14:00,0.2,静穏,0.9,南,-0.4,94.7,0,0,0,0,0,0,1008.9,1023.6
316,2024-01-08T05:15:00,0.3,南南西,0.9,南,-0.5,94.2,0,0,0,0,0,0,1008.9,1023.6
317,2024-01-08T05:16:00,0.3,南南西,0.9,南,-0.6,94.2,0,0,0,0,0,0,1009,1023.7
318,2024-01-08T05:17:00,0.4,南南西,1.2,南南西,-0.6,94.3,0,0,0,0,0,0,1008.9,1023.6
319,2024-01-08T05:18:00,0.4,南南西,1.2,南南西,-0.5,94.4,0,0,0,0,0,0,1008.9,1023.6
320,2024-01-08T05:19:00,0.5,南南西,1.5,南南西,-0.3,95,0,0,0,0,0,0,1009,1023.7
321,2024-01-08T05:20:00,0.5,南南西,1.5,南南西,-0.3,95.4,0,0,0,0,0,0,1008.9,1023.6
322,2024-01-08T05:21:00,0.6,南西,1.5,南南西,-0.4,94.3,0,0,0,0,0,0,1009,1023.7
323,2024-01-08T05:22:00,0.6,南西,1.5,南南西,-0.5,94.2,0,0,0,0,0,0,1009,1023.7
324,2024-01-08T05:23:00,0.6,南南西,1.5,南南西,-0.5,94.4,0,0,0,0,0,0,1009,1023.7
325,2024-01-08T05:24:00,0.6,南南西,1.5,南南西,-0.6,94.2,0,0,0,0,0,0,1009,1023.7
326,2024-01-08T05:25:00,0.6,南南西,1.5,南南西,-0.6,94.2,0,0,0,0,0,0,1009,1023.7
327,2024-01-08T05:26:00,0.7,南南西,1.5,南南西,-0.6,94.3,0,0,0,0,0,0,1009.1,1023.8
328,2024-01-08T05:27:00,0.6,南南西,1.5,南南西,-0.6,94.2,0,0,0,0,0,0,1009.1,1023.8
329,2024-01-08T05:28:00,0.6,南南西,1.5,南南西,-0.5,94.5,0,0,0,0,0,0,1009.1,1023.8
330,2024-01-08T05:29:00,0.6,南南西,1.5,南,-0.3,95,0,0,0,0,0,0,1009.1,1023.8
331,2024-01-08T05:30:00,0.5,南南西,1.5,南,-0.4,94.5,0,0,0,0,0,0,1009.1,1023.8